When you browse on this site, cookies collect data to enhance your experience and personalize the content and advertising you see.
Visit our Privacy Policy to learn more. By continuing to use the site, you agree to this use of cookies and data.
  • In Hungary
  • List of Countries
  • For 7 days
  • Water Temperature
  • Satellite Maps
  • Weather Map
  • News
  • Weather Widgets
  • user-avatar
    Login

    Hourly Weather Sukow

    Today, 27 May, Monday

    Time Temperature Precipitation Wind Pressure Humidity
    00:00 +14°C° 0 mm 2 mps 737 mmHg 89%
    01:00 +14°C° 0 mm 2 mps 737 mmHg 90%
    02:00 +14°C° 0 mm 2 mps 736 mmHg 91%
    03:00 +14°C° 0 mm 2 mps 736 mmHg 91%
    04:00 +14°C° 0 mm 2 mps 736 mmHg 92%
    05:00 +16°C° 0 mm 2 mps 736 mmHg 87%
    06:00 +17°C° 0 mm 3 mps 736 mmHg 82%
    07:00 +19°C° 0 mm 3 mps 736 mmHg 77%
    08:00 +21°C° 0.2 mm 4 mps 736 mmHg 70%
    09:00 +22°C° 0.2 mm 4 mps 736 mmHg 63%
    10:00 +23°C° 0.2 mm 4 mps 736 mmHg 57%
    11:00 +25°C° 0.3 mm 4 mps 736 mmHg 56%
    12:00 +25°C° 0.3 mm 4 mps 736 mmHg 56%
    13:00 +25°C° 0.3 mm 3 mps 735 mmHg 56%
    14:00 +26°C° 0.1 mm 3 mps 735 mmHg 55%
    15:00 +26°C° 0.1 mm 3 mps 735 mmHg 54%
    16:00 +26°C° 0.1 mm 3 mps 735 mmHg 53%
    17:00 +24°C° 0.3 mm 3 mps 734 mmHg 62%
    18:00 +22°C° 0.3 mm 3 mps 734 mmHg 72%
    19:00 +20°C° 0.3 mm 3 mps 734 mmHg 82%
    20:00 +19°C° 0.1 mm 2 mps 733 mmHg 85%
    21:00 +18°C° 0.1 mm 2 mps 733 mmHg 88%
    22:00 +18°C° 0.1 mm 2 mps 733 mmHg 91%
    23:00 +17°C° 0 mm 2 mps 733 mmHg 92%

    Tomorrow, 28 May, Tuesday

    Time Temperature Precipitation Wind Pressure Humidity
    00:00 +17°C° 0 mm 2 mps 733 mmHg 93%
    01:00 +17°C° 0 mm 2 mps 732 mmHg 93%
    02:00 +16°C° 0 mm 2 mps 732 mmHg 94%
    03:00 +16°C° 0 mm 2 mps 732 mmHg 94%
    04:00 +16°C° 0 mm 2 mps 731 mmHg 95%
    05:00 +17°C° 0 mm 2 mps 731 mmHg 90%
    06:00 +18°C° 0 mm 2 mps 731 mmHg 86%
    07:00 +19°C° 0 mm 2 mps 731 mmHg 82%
    08:00 +20°C° 0.2 mm 3 mps 731 mmHg 76%
    09:00 +22°C° 0.2 mm 4 mps 731 mmHg 70%
    10:00 +23°C° 0.2 mm 5 mps 731 mmHg 64%
    11:00 +23°C° 1 mm 4 mps 731 mmHg 67%
    12:00 +23°C° 1 mm 4 mps 731 mmHg 69%
    13:00 +24°C° 1 mm 3 mps 730 mmHg 72%
    14:00 +23°C° 1.4 mm 2 mps 730 mmHg 77%
    15:00 +21°C° 1.4 mm 2 mps 730 mmHg 82%
    16:00 +21°C° 1.4 mm 1 mps 730 mmHg 87%
    17:00 +20°C° 0.8 mm 1 mps 730 mmHg 86%
    18:00 +20°C° 0.8 mm 1 mps 730 mmHg 86%
    19:00 +19°C° 0.8 mm 1 mps 730 mmHg 85%
    20:00 +19°C° 0.2 mm 1 mps 730 mmHg 86%
    21:00 +18°C° 0.2 mm 1 mps 731 mmHg 87%
    22:00 +15°C° 0.2 mm 0 mps 731 mmHg 88%
    23:00 +16°C° 0.2 mm 1 mps 731 mmHg 91%

    Day after tomorrow, 29 May, Wednesday

    Time Temperature Precipitation Wind Pressure Humidity
    00:00 +15°C° 0.2 mm 1 mps 731 mmHg 93%
    01:00 +14°C° 0.2 mm 2 mps 732 mmHg 96%
    02:00 +13°C° 0.1 mm 3 mps 732 mmHg 96%
    03:00 +13°C° 0.1 mm 3 mps 733 mmHg 96%
    04:00 +13°C° 0.1 mm 4 mps 734 mmHg 96%
    05:00 +13°C° 0 mm 4 mps 734 mmHg 95%
    06:00 +12°C° 0 mm 4 mps 735 mmHg 94%
    07:00 +10°C° 0 mm 5 mps 736 mmHg 92%
    08:00 +10°C° 0.1 mm 5 mps 736 mmHg 92%
    09:00 +9°C° 0.1 mm 5 mps 737 mmHg 92%
    10:00 +9°C° 0.1 mm 5 mps 738 mmHg 92%
    11:00 +9°C° 0 mm 5 mps 738 mmHg 89%
    12:00 +10°C° 0 mm 5 mps 739 mmHg 86%
    13:00 +10°C° 0 mm 5 mps 739 mmHg 83%
    14:00 +12°C° 0 mm 5 mps 739 mmHg 78%
    15:00 +13°C° 0 mm 5 mps 739 mmHg 73%
    16:00 +14°C° 0 mm 5 mps 740 mmHg 69%
    17:00 +13°C° 0 mm 4 mps 740 mmHg 72%
    18:00 +12°C° 0 mm 3 mps 740 mmHg 75%
    19:00 +12°C° 0 mm 3 mps 740 mmHg 78%
    20:00 +11°C° 0 mm 3 mps 740 mmHg 80%
    21:00 +10°C° 0 mm 2 mps 741 mmHg 82%
    22:00 +10°C° 0 mm 2 mps 741 mmHg 83%
    23:00 +10°C° 0 mm 3 mps 741 mmHg 80%

    30 May, Thursday

    Time Temperature Precipitation Wind Pressure Humidity
    00:00 +10°C° 0 mm 3 mps 741 mmHg 77%
    01:00 +10°C° 0 mm 4 mps 741 mmHg 74%
    02:00 +9°C° 0 mm 3 mps 741 mmHg 76%
    03:00 +8°C° 0 mm 3 mps 741 mmHg 78%
    04:00 +8°C° 0 mm 3 mps 741 mmHg 80%
    05:00 +8°C° 0 mm 3 mps 741 mmHg 79%
    06:00 +9°C° 0 mm 2 mps 742 mmHg 78%
    07:00 +9°C° 0 mm 2 mps 742 mmHg 77%
    08:00 +10°C° 0 mm 2 mps 742 mmHg 74%
    09:00 +11°C° 0 mm 3 mps 742 mmHg 71%
    10:00 +12°C° 0 mm 3 mps 742 mmHg 67%
    11:00 +13°C° 0 mm 3 mps 742 mmHg 63%
    12:00 +16°C° 0 mm 3 mps 742 mmHg 59%
    13:00 +17°C° 0 mm 3 mps 742 mmHg 54%
    14:00 +18°C° 0 mm 3 mps 742 mmHg 54%
    15:00 +18°C° 0 mm 3 mps 742 mmHg 53%
    16:00 +18°C° 0 mm 2 mps 742 mmHg 53%
    17:00 +17°C° 0 mm 2 mps 742 mmHg 58%
    18:00 +16°C° 0 mm 2 mps 742 mmHg 64%
    19:00 +15°C° 0 mm 2 mps 743 mmHg 70%
    20:00 +14°C° 0 mm 2 mps 743 mmHg 70%
    21:00 +12°C° 0 mm 2 mps 743 mmHg 70%
    22:00 +11°C° 0 mm 1 mps 743 mmHg 71%
    23:00 +11°C° 0 mm 1 mps 743 mmHg 70%

    31 May, Friday

    Time Temperature Precipitation Wind Pressure Humidity
    00:00 +10°C° 0 mm 1 mps 743 mmHg 69%
    01:00 +10°C° 0 mm 1 mps 743 mmHg 68%
    02:00 +10°C° 0 mm 1 mps 743 mmHg 69%
    03:00 +10°C° 0 mm 1 mps 743 mmHg 69%
    04:00 +9°C° 0 mm 1 mps 742 mmHg 69%
    05:00 +11°C° 0 mm 1 mps 742 mmHg 65%
    06:00 +13°C° 0 mm 1 mps 743 mmHg 61%
    07:00 +15°C° 0 mm 1 mps 743 mmHg 58%
    08:00 +18°C° 0 mm 1 mps 742 mmHg 54%
    09:00 +19°C° 0 mm 1 mps 742 mmHg 51%
    10:00 +21°C° 0 mm 1 mps 742 mmHg 48%
    11:00 +21°C° 0 mm 1 mps 742 mmHg 46%
    12:00 +22°C° 0 mm 1 mps 742 mmHg 45%
    13:00 +21°C° 0 mm 0 mps 741 mmHg 44%
    14:00 +22°C° 0 mm 1 mps 741 mmHg 44%
    15:00 +22°C° 0 mm 1 mps 741 mmHg 45%
    16:00 +22°C° 0 mm 1 mps 740 mmHg 45%
    17:00 +20°C° 0 mm 1 mps 740 mmHg 52%
    18:00 +19°C° 0 mm 1 mps 740 mmHg 59%
    19:00 +18°C° 0 mm 1 mps 740 mmHg 66%
    20:00 +16°C° 0 mm 1 mps 740 mmHg 69%
    21:00 +15°C° 0 mm 1 mps 740 mmHg 72%
    22:00 +14°C° 0 mm 1 mps 740 mmHg 75%
    23:00 +14°C° 0 mm 1 mps 740 mmHg 76%

    1 June, Saturday

    Time Temperature Precipitation Wind Pressure Humidity
    00:00 +14°C° 0 mm 2 mps 740 mmHg 77%
    01:00 +14°C° 0 mm 2 mps 740 mmHg 78%
    02:00 +13°C° 0.1 mm 3 mps 740 mmHg 83%
    03:00 +13°C° 0.1 mm 4 mps 740 mmHg 88%
    04:00 +13°C° 0.1 mm 5 mps 741 mmHg 94%
    05:00 +12°C° 0.1 mm 5 mps 741 mmHg 93%
    06:00 +10°C° 0.1 mm 5 mps 741 mmHg 92%
    07:00 +9°C° 0.1 mm 5 mps 741 mmHg 91%
    08:00 +9°C° 0 mm 5 mps 742 mmHg 90%
    09:00 +10°C° 0 mm 5 mps 742 mmHg 88%
    10:00 +10°C° 0 mm 5 mps 742 mmHg 87%
    11:00 +12°C° 0 mm 5 mps 742 mmHg 84%
    12:00 +12°C° 0 mm 5 mps 742 mmHg 82%
    13:00 +13°C° 0 mm 5 mps 742 mmHg 80%
    14:00 +13°C° 0 mm 5 mps 742 mmHg 79%
    15:00 +14°C° 0 mm 5 mps 742 mmHg 78%
    16:00 +14°C° 0 mm 5 mps 742 mmHg 77%
    17:00 +14°C° 0 mm 5 mps 742 mmHg 78%
    18:00 +14°C° 0 mm 4 mps 742 mmHg 80%
    19:00 +13°C° 0 mm 3 mps 742 mmHg 82%
    20:00 +13°C° 0 mm 3 mps 742 mmHg 83%
    21:00 +12°C° 0 mm 3 mps 743 mmHg 84%
    22:00 +12°C° 0 mm 3 mps 743 mmHg 84%
    23:00 +11°C° 0 mm 3 mps 743 mmHg 87%
    Show more